Flag for U.S.A. Weather past 2 weeks in Concord, California, U.S.A.

Now
64 °F

Sunny.


Feels Like: 64 °F
Forecast: 43 / 70 °F
Wind: 5 mph from Northeast

Location: Buchanan Field

Current Time: Mar 4, 2015 at 7:03:58 PM

Latest Report: Mar 4, 2015 at 5:53 PM


Visibility: 10 mi

Pressure: 30.10 "Hg

Humidity: 34%

Dew point: 35 °F

Location of ConcordLocation

Historic Weather in Concord — Graph

°F

Concord temperature yesterday

Maximum temperature yesterday: 66 °F (at 2:53 PM)
Minimum temperature yesterday: 42 °F (at 5:53 AM)
Average temperature yesterday: 53 °F

Past Weeks' High & Low Weather Summary

 TemperatureHumidityPressure
High73 °F (Feb 26, 2:53 PM)97% (Feb 19, 7:53 AM)30.32 "Hg (Feb 19, 7:53 AM)
Low36 °F (Feb 24, 4:53 AM)9% (Feb 24, 11:53 AM)29.68 "Hg (Feb 28, 3:53 AM)
Average55 °F63%29.97 "Hg
* Reported Feb 17 5:53 PM — Mar 4 5:53 PM, Concord, Weather by CustomWeather, © 2015

Note: Actual official high and low records may vary slightly from our data, if they occured in-between our weather recording intervals... More about our weather records

Advertising

Concord weather history for previous 24 hours

 ConditionsComfort  
Time TempWeatherWind HumidityBarometerVisibility
5:53 PM
Wed, Mar 4
64 °FSunny.5 mph34%30.10 "Hg10 mi
4:53 PM67 °FSunny.6 mph33%30.09 "Hg10 mi
3:53 PM68 °FSunny.No wind25%30.09 "Hg10 mi
2:53 PM69 °FSunny.5 mph24%30.09 "Hg10 mi
1:53 PM68 °FSunny.No wind26%30.09 "Hg10 mi
12:53 PM66 °FSunny.6 mph36%30.10 "Hg10 mi
11:53 AM64 °FSunny.3 mph29%30.11 "Hg10 mi
10:53 AM64 °FSunny.No wind32%30.10 "Hg10 mi
9:53 AM58 °FSunny.3 mph54%30.10 "Hg10 mi
8:53 AM52 °FSunny.5 mph66%30.10 "Hg10 mi
7:53 AM47 °FSunny.5 mph77%30.08 "Hg10 mi
6:53 AM42 °FSunny.No wind85%30.05 "Hg10 mi
5:53 AM43 °FClear.No wind82%30.03 "Hg10 mi
4:53 AM44 °FClear.3 mph82%30.01 "Hg10 mi
3:53 AM45 °FClear.5 mph80%30.00 "Hg10 mi
2:53 AM45 °FClear.5 mph80%30.00 "Hg10 mi
1:53 AM46 °FClear.3 mph77%30.00 "Hg10 mi
12:53 AM47 °FClear.6 mph77%29.99 "Hg10 mi
11:53 PM
Tue, Mar 3
48 °FClear.3 mph77%29.98 "Hg10 mi
10:53 PM50 °FClear.3 mph71%29.98 "Hg10 mi
9:53 PM53 °FClear.7 mph64%29.98 "Hg10 mi
8:53 PM54 °FClear.6 mph64%29.97 "Hg10 mi
7:53 PM56 °FClear.3 mph65%29.95 "Hg10 mi
Weather by CustomWeather, © 2015

See weather overviewHow to use our weather pages